Kolkata, India

11:23 AM IST on July 26, 2017 (GMT +0530)
Netaji Subhash Chandra Bose International

Weather History for VECC - March, 2013

Change the Weather History Date:

Thursday, March 21, 2013

  Actual Average Record
Temperature  
Mean Temperature 86 °F -  
Max Temperature 97 °F 90 °F 100 °F (2004)
Min Temperature 74 °F 72 °F 63 °F (2017)
Cooling Degree Days 20    
Growing Degree Days 36 (Base 50)    
Moisture  
Dew Point 65 °F    
Average Humidity 55    
Maximum Humidity 89    
Minimum Humidity 22    
Precipitation  
Precipitation 0.00 in - - ()
Sea Level Pressure  
Sea Level Pressure 29.73 in    
Wind  
Wind Speed 4 mph ()    
Max Wind Speed 9 mph    
Max Gust Speed -    
Visibility 1.4 miles    
Events      
Averages and records for this station are not official NWS values.
T = Trace of Precipitation, MM = Missing Value Source: Averaged Metar Reports

Daily Weather History Graph

Daily Weather History Graph

Search for Another Location

Airport or City:

Trip Planner

Search our weather history database for the weather conditions in past years. The results will help you decide how hot, cold, wet, or windy it might be!

Date:

Astronomy

Mar. 21, 2013 Rise Set
Actual Time 5:39 AM IST 5:47 PM IST
Civil Twilight 5:17 AM IST 6:10 PM IST
Nautical Twilight 4:51 AM IST 6:36 PM IST
Astronomical Twilight 4:24 AM IST 7:02 PM IST
Moon 12:24 PM IST (3/21) 1:05 AM IST (3/21)
Length of Visible Light 12h 52m
Length of Day
12h 08m
Waxing Gibbous, 65% of the Moon is Illuminated
Mar 21
Waxing Gibbous
Mar 27
Full
Apr 3
Last Quarter
Apr 10
New
Apr 18
First Quarter

Hourly Weather History & Observations

Time (IST) Temp. Heat Index Dew Point Humidity Pressure Visibility Wind Dir Wind Speed Gust Speed Precip Events Conditions
12:20 AM 80.6 °F 85.4 °F 73.4 °F 79% 29.77 in 1.2 mi SSW 5.8 mph - N/A   Partly Cloudy
12:50 AM 78.8 °F - 73.4 °F 83% 29.77 in 1.2 mi WSW 6.9 mph - N/A   Partly Cloudy
1:20 AM 78.8 °F - 73.4 °F 83% 29.77 in 1.2 mi WSW 5.8 mph - N/A   Partly Cloudy
1:50 AM 78.8 °F - 73.4 °F 83% 29.77 in 1.2 mi SW 6.9 mph - N/A   Partly Cloudy
2:20 AM 78.8 °F - 73.4 °F 83% 29.77 in 1.2 mi SW 5.8 mph - N/A   Partly Cloudy
2:30 AM 78 °F - 74 °F 84% 29.77 in 1 mi SW 2.3 mph - -   Haze
2:50 AM 78.8 °F - 73.4 °F 83% 29.74 in 1.2 mi WSW 3.5 mph - N/A   Partly Cloudy
3:20 AM 78.8 °F - 73.4 °F 83% 29.74 in 1.2 mi West 4.6 mph - N/A   Partly Cloudy
3:50 AM 78.8 °F - 73.4 °F 83% 29.74 in 1.2 mi West 3.5 mph - N/A   Partly Cloudy
4:20 AM 78.8 °F - 73.4 °F 83% 29.74 in 1.2 mi Calm Calm - N/A   Partly Cloudy
4:50 AM 77.0 °F - 73.4 °F 89% 29.74 in 1.2 mi SSW 4.6 mph - N/A   Partly Cloudy
5:20 AM 77.0 °F - 73.4 °F 89% 29.77 in 1.2 mi WSW 3.5 mph - N/A   Partly Cloudy
5:30 AM 76 °F - 72 °F 84% 29.76 in 1 mi West 1.2 mph - -   Haze
5:50 AM 77.0 °F - 73.4 °F 89% 29.77 in 1.1 mi WNW 3.5 mph - N/A   Partly Cloudy
6:20 AM 77.0 °F - 71.6 °F 83% 29.80 in 1.1 mi Calm Calm - N/A   Partly Cloudy
6:50 AM 77.0 °F - 71.6 °F 83% 29.80 in 1.1 mi West 3.5 mph - N/A   Partly Cloudy
7:20 AM 78.8 °F - 71.6 °F 78% 29.83 in 1.1 mi West 3.5 mph - N/A   Partly Cloudy
7:50 AM 78.8 °F - 71.6 °F 78% 29.83 in 1.2 mi West 3.5 mph - N/A   Mist
8:20 AM 80.6 °F 84.6 °F 71.6 °F 74% 29.83 in 1.2 mi WNW 4.6 mph - N/A   Mist
8:30 AM 83 °F - 70 °F 57% 29.83 in 1 mi WSW 2.3 mph - -   Haze
8:50 AM 82.4 °F 86.3 °F 69.8 °F 66% 29.80 in 1.4 mi NW 4.6 mph - N/A   Haze
9:20 AM 84.2 °F 87.3 °F 68.0 °F 58% 29.80 in 1.6 mi WNW 5.8 mph - N/A   Haze
9:50 AM 86.0 °F 89.4 °F 68.0 °F 55% 29.83 in 1.6 mi WNW 5.8 mph - N/A   Haze
10:20 AM 87.8 °F 91.4 °F 68.0 °F 52% 29.80 in 1.7 mi WNW 5.8 mph - N/A   Haze
11:20 AM 91.4 °F 91.4 °F 60.8 °F 36% 29.77 in 1.9 mi North 4.6 mph - N/A   Haze
11:30 AM 95 °F - 60 °F 22% 29.79 in 1 mi NW 1.2 mph - -   Haze
11:50 AM 93.2 °F 93.3 °F 60.8 °F 34% 29.74 in - NNE 5.8 mph - N/A   Haze
12:20 PM 95.0 °F 95.2 °F 60.8 °F 32% 29.74 in 2.2 mi WNW 5.8 mph - N/A   Haze
12:50 PM 96.8 °F 95.8 °F 57.2 °F 27% 29.74 in 2.2 mi NNW 8.1 mph - N/A   Haze
1:20 PM 98.6 °F 97.6 °F 57.2 °F 25% 29.71 in 2.2 mi NNW 8.1 mph - N/A   Haze
1:50 PM 98.6 °F 97.6 °F 57.2 °F 25% 29.68 in - WNW 9.2 mph - N/A   Haze
2:20 PM 98.6 °F 97.6 °F 57.2 °F 25% 29.68 in - West 8.1 mph - N/A   Haze
2:50 PM 98.6 °F 97.6 °F 57.2 °F 25% 29.68 in - WNW 9.2 mph - N/A   Haze
3:20 PM 96.8 °F 95.1 °F 55.4 °F 25% 29.65 in - WNW 5.8 mph - N/A   Haze
3:50 PM 96.8 °F 95.1 °F 55.4 °F 25% 29.65 in - WNW 6.9 mph - N/A   Haze
4:20 PM 96.8 °F 95.1 °F 55.4 °F 25% 29.65 in - NNW 5.8 mph - N/A   Haze
4:50 PM 95.0 °F 93.0 °F 55.4 °F 26% 29.65 in 2.2 mi NW 3.5 mph - N/A   Haze
5:20 PM 93.2 °F 91.3 °F 55.4 °F 28% 29.65 in - West 3.5 mph - N/A   Haze
5:30 PM 91 °F - 57 °F 22% 29.66 in 1 mi Calm Calm - -   Haze
5:50 PM 91.4 °F 89.9 °F 57.2 °F 31% 29.65 in - West 3.5 mph - N/A   Haze
6:20 PM 89.6 °F 88.1 °F 57.2 °F 33% 29.65 in - West 3.5 mph - N/A   Haze
6:50 PM 87.8 °F 86.5 °F 57.2 °F 35% 29.65 in - Calm Calm - N/A   Haze
7:20 PM 87.8 °F 86.5 °F 57.2 °F 35% 29.65 in - Calm Calm - N/A   Haze
7:50 PM 86.0 °F 84.5 °F 55.4 °F 35% 29.68 in - Calm Calm - N/A   Haze
8:20 PM 84.2 °F 83.5 °F 57.2 °F 40% 29.68 in - SSE 3.5 mph - N/A   Haze
8:30 PM 81 °F - 62 °F 43% 29.73 in 1 mi Calm Calm - -   Haze
8:50 PM 82.4 °F 82.5 °F 59.0 °F 45% 29.71 in 1.9 mi SW 3.5 mph - N/A   Haze
9:20 PM 80.6 °F 81.1 °F 59.0 °F 48% 29.71 in 1.9 mi WSW 3.5 mph - N/A   Haze
9:50 PM 80.6 °F 81.5 °F 60.8 °F 51% 29.71 in 1.9 mi WSW 6.9 mph - N/A   Haze
10:20 PM 80.6 °F 81.5 °F 60.8 °F 51% 29.71 in 1.9 mi WSW 5.8 mph - N/A   Haze
10:50 PM 80.6 °F 81.8 °F 62.6 °F 54% 29.71 in 1.9 mi WSW 5.8 mph - N/A   Haze
11:20 PM 80.6 °F 82.3 °F 64.4 °F 58% 29.71 in 1.9 mi WSW 8.1 mph - N/A   Haze
11:30 PM 81 °F - 71 °F 63% 29.73 in 1 mi West 2.3 mph - -   Haze
11:50 PM 80.6 °F 82.7 °F 66.2 °F 61% 29.71 in 1.9 mi West 5.8 mph - N/A   Haze